, TX

(GMT )
Midland

Weather History for KMAF - May, 2013

Change the Weather History Date:

Wednesday, May 15, 2013

  Actual Average Record
Temperature  
Mean Temperature 78 °F 73 °F  
Max Temperature 95 °F 87 °F 103 °F (2003)
Min Temperature 60 °F 59 °F 40 °F (1967)
Cooling Degree Days 13 9  
Month to date cooling degree days 67 107  
Year to date cooling degree days 221 215  
Growing Degree Days 28 (Base 50)    
Moisture  
Dew Point 47 °F    
Average Humidity 49    
Maximum Humidity 84    
Minimum Humidity 13    
Precipitation  
Precipitation 0.00 in 0.06 in 0.81 in (1980)
Month to date precipitation 0.01 0.63  
Year to date precipitation 1.54 3.15  
Sea Level Pressure  
Sea Level Pressure 29.77 in    
Wind  
Wind Speed 15 mph (SSW)    
Max Wind Speed 31 mph    
Max Gust Speed 38 mph    
Visibility 10 miles    
Events      
T = Trace of Precipitation, MM = Missing Value Source: NWS Daily Summary

Daily Weather History Graph

Daily Weather History Graph

Search for Another Location

Airport or City:

Trip Planner

Search our weather history database for the weather conditions in past years. The results will help you decide how hot, cold, wet, or windy it might be!

Date:

Astronomy

May. 15, 2013 Rise Set
Actual Time 6:51 AM CDT 8:39 PM CDT
Civil Twilight 6:24 AM CDT 9:06 PM CDT
Nautical Twilight 5:52 AM CDT 9:38 PM CDT
Astronomical Twilight 5:17 AM CDT 10:13 PM CDT
Moon 11:25 AM CDT (5/15) 12:29 AM CDT (5/15)
Length of Visible Light 14h 41m
Length of Day
13h 47m
Waxing Crescent, 27% of the Moon is Illuminated
May 15
Waxing Crescent
May 17
First Quarter
May 24
Full
May 31
Last Quarter
Jun 8
New

Hourly Weather History & Observations

Time (CDT) Temp. Dew Point Humidity Pressure Visibility Wind Dir Wind Speed Gust Speed Precip Events Conditions
12:53 AM 66.9 °F 51.1 °F 57% 29.86 in 10.0 mi SW 8.1 mph - N/A   Clear
1:53 AM 66.0 °F 52.0 °F 60% 29.87 in 10.0 mi South 12.7 mph - N/A   Clear
2:53 AM 66.0 °F 52.0 °F 60% 29.86 in 10.0 mi South 16.1 mph 25.3 mph N/A   Clear
3:53 AM 64.9 °F 52.0 °F 63% 29.85 in 10.0 mi South 15.0 mph - N/A   Clear
4:53 AM 63.0 °F 53.1 °F 70% 29.84 in 10.0 mi South 17.3 mph - N/A   Clear
5:53 AM 60.1 °F 55.9 °F 86% 29.84 in 10.0 mi South 13.8 mph - N/A   Clear
6:53 AM 60.1 °F 55.0 °F 83% 29.85 in 10.0 mi South 13.8 mph - N/A   Clear
7:53 AM 61.0 °F 55.0 °F 81% 29.85 in 10.0 mi South 15.0 mph - N/A   Clear
8:53 AM 66.0 °F 55.0 °F 68% 29.84 in 10.0 mi South 17.3 mph - N/A   Clear
9:53 AM 71.1 °F 52.0 °F 51% 29.82 in 10.0 mi SSW 16.1 mph 24.2 mph N/A   Clear
10:53 AM 78.1 °F 48.9 °F 36% 29.80 in 10.0 mi SSW 16.1 mph 24.2 mph N/A   Clear
11:53 AM 82.9 °F 46.9 °F 28% 29.79 in 10.0 mi SW 16.1 mph - N/A   Clear
12:53 PM 84.0 °F 44.1 °F 25% 29.79 in 10.0 mi WSW 10.4 mph 23.0 mph N/A   Partly Cloudy
1:53 PM 88.0 °F 42.1 °F 20% 29.74 in 10.0 mi SW 16.1 mph - N/A   Clear
2:53 PM 91.0 °F 39.0 °F 16% 29.70 in 10.0 mi SSW 13.8 mph 21.9 mph N/A   Clear
3:53 PM 93.0 °F 37.0 °F 14% 29.66 in 10.0 mi SW 15.0 mph 24.2 mph N/A   Partly Cloudy
4:53 PM 93.9 °F 35.1 °F 13% 29.63 in 10.0 mi SW 24.2 mph 31.1 mph N/A   Partly Cloudy
5:53 PM 93.0 °F 36.0 °F 13% 29.62 in 10.0 mi WSW 28.8 mph 35.7 mph N/A   Clear
6:53 PM 91.0 °F 37.0 °F 15% 29.63 in 10.0 mi WSW 24.2 mph 36.8 mph N/A   Clear
7:53 PM 89.1 °F 37.0 °F 16% 29.66 in 10.0 mi WSW 9.2 mph - N/A   Clear
8:35 PM 78.8 °F 44.6 °F 30% 29.81 in 10.0 mi ENE 21.9 mph 32.2 mph N/A   Clear
8:53 PM 78.1 °F 45.0 °F 31% 29.69 in 10.0 mi ENE 17.3 mph - N/A   Clear
9:53 PM 75.9 °F 46.9 °F 36% 29.70 in 10.0 mi East 9.2 mph - N/A   Clear
10:53 PM 73.0 °F 48.9 °F 42% 29.72 in 10.0 mi ESE 6.9 mph - N/A   Clear
11:53 PM 72.0 °F 46.9 °F 41% 29.69 in 10.0 mi SSE 12.7 mph - N/A   Clear